Sister Bay, Wisconsin, United States (54234)
Lat: 45.19N, Lon: 87.12W
Wx Zone: WIZ022
Local Info
Past Weather Observations for Friday, April 18, 2014

NOTE: This archive is for the closest National Weather Service station to Sister Bay. Information may differ from the station used for current weather conditions.

Time Weather Temperature Dewpoint Humidity Pressure Winds Precip Visibility
23:55
Mostly Cloudy
32°F / 0°C 25°F / -4°C 75% 30.36 in
(1028 mb)
SE 8.1 mph
(SE 13 kph)
- 10SM
23:35
Partly Cloudy
32°F / 0°C 25°F / -4°C 75% 30.36 in
(1028 mb)
ESE 5.8 mph
(ESE 9 kph)
- 10SM
23:15
Clear
32°F / 0°C 25°F / -4°C 75% 30.36 in
(1028 mb)
SE 5.8 mph
(SE 9 kph)
- 10SM
22:55
Clear
32°F / 0°C 25°F / -4°C 75% 30.36 in
(1028 mb)
SE 8.1 mph
(SE 13 kph)
- 10SM
22:35
Clear
32°F / 0°C 25°F / -4°C 75% 30.36 in
(1028 mb)
ESE 11.5 mph
(ESE 19 kph)
- 10SM
22:15
Clear
32°F / 0°C 25°F / -4°C 75% 30.36 in
(1028 mb)
SE 10.4 mph
(SE 17 kph)
- 10SM
21:55
Clear
32°F / 0°C 23°F / -5°C 69% 30.36 in
(1028 mb)
SE 9.2 mph
(SE 15 kph)
- 10SM
21:35
Clear
34°F / 1°C 23°F / -5°C 65% 30.36 in
(1028 mb)
SE 8.1 mph
(SE 13 kph)
- 10SM
21:15
Clear
34°F / 1°C 23°F / -5°C 65% 30.36 in
(1028 mb)
ESE 10.4 mph
(ESE 17 kph)
- 10SM
20:55
Clear
34°F / 1°C 23°F / -5°C 65% 30.36 in
(1028 mb)
ESE 9.2 mph
(ESE 15 kph)
- 10SM
20:35
Clear
34°F / 1°C 23°F / -5°C 65% 30.36 in
(1028 mb)
ESE 9.2 mph
(ESE 15 kph)
- 10SM
20:15
Clear
36°F / 2°C 21°F / -6°C 56% 30.36 in
(1028 mb)
E 12.7 mph
(E 20 kph)
- 10SM
19:55
Clear
37°F / 3°C 18°F / -8°C 45% 30.36 in
(1028 mb)
E 6.9 mph
(E 11 kph)
- 10SM
19:35
Clear
36°F / 2°C 21°F / -6°C 56% 30.36 in
(1028 mb)
E 5.8 mph
(E 9 kph)
- 10SM
19:15
Clear
36°F / 2°C 23°F / -5°C 60% 30.36 in
(1028 mb)
E 3.5 mph
(E 6 kph)
- 10SM
18:55
Clear
37°F / 3°C 27°F / -3°C 65% 30.36 in
(1028 mb)
Calm - 10SM
18:35
Clear
41°F / 5°C 21°F / -6°C 45% 30.36 in
(1028 mb)
Calm - 10SM
18:15
Clear
41°F / 5°C 23°F / -5°C 49% 30.36 in
(1028 mb)
Calm - 10SM
17:55
Clear
43°F / 6°C 18°F / -8°C 36% 30.33 in
(1027 mb)
Calm - 10SM
17:35
Clear
43°F / 6°C 21°F / -6°C 42% 30.36 in
(1028 mb)
Calm - 10SM
17:15
Clear
43°F / 6°C 19°F / -7°C 39% 30.36 in
(1028 mb)
Calm - 10SM
16:55
Clear
43°F / 6°C 19°F / -7°C 39% 30.33 in
(1027 mb)
Calm - 10SM
16:35
Clear
43°F / 6°C 19°F / -7°C 39% 30.36 in
(1028 mb)
Calm - 10SM
16:15
Clear
43°F / 6°C 21°F / -6°C 42% 30.33 in
(1027 mb)
ENE 5.8 mph
(ENE 9 kph)
- 10SM
15:55
Clear
43°F / 6°C 19°F / -7°C 39% 30.33 in
(1027 mb)
N 6.9 mph
(N 11 kph)
- 10SM
15:35
Clear
43°F / 6°C 21°F / -6°C 42% 30.33 in
(1027 mb)
NE 8.1 mph
(NE 13 kph)
- 10SM
15:15
Clear
43°F / 6°C 23°F / -5°C 46% 30.33 in
(1027 mb)
N 6.9 mph
(N 11 kph)
- 10SM
14:55
Clear
43°F / 6°C 23°F / -5°C 46% 30.36 in
(1028 mb)
N 6.9 mph
(N 11 kph)
- 10SM
14:35
Clear
43°F / 6°C 23°F / -5°C 46% 30.36 in
(1028 mb)
N 5.8 mph
(N 9 kph)
- 10SM
14:15
Clear
43°F / 6°C 23°F / -5°C 46% 30.36 in
(1028 mb)
N 8.1 mph
(N 13 kph)
- 10SM
13:55
Clear
43°F / 6°C 21°F / -6°C 42% 30.36 in
(1028 mb)
N 4.6 mph
(N 7 kph)
- 10SM
13:35
Clear
41°F / 5°C 23°F / -5°C 49% 30.36 in
(1028 mb)
NNE 5.8 mph
(NNE 9 kph)
- 10SM
13:15
Clear
41°F / 5°C 23°F / -5°C 49% 30.36 in
(1028 mb)
N 5.8 mph
(N 9 kph)
- 10SM
12:55
Clear
41°F / 5°C 23°F / -5°C 49% 30.36 in
(1028 mb)
N 8.1 mph
(N 13 kph)
- 10SM
12:35
Clear
41°F / 5°C 21°F / -6°C 45% 30.36 in
(1028 mb)
N 8.1 mph
(N 13 kph)
- 10SM
12:15
Clear
41°F / 5°C 23°F / -5°C 49% 30.36 in
(1028 mb)
NNW 9.2 mph
(NNW 15 kph)
- 10SM
11:55
Clear
39°F / 4°C 23°F / -5°C 52% 30.36 in
(1028 mb)
N 6.9 mph
(N 11 kph)
- 10SM
11:35
Clear
39°F / 4°C 23°F / -5°C 52% 30.36 in
(1028 mb)
N 8.1 mph
(N 13 kph)
- 10SM
11:15
Clear
37°F / 3°C 23°F / -5°C 56% 30.36 in
(1028 mb)
NNW 4.6 mph
(NNW 7 kph)
- 10SM
10:55
Clear
37°F / 3°C 25°F / -4°C 60% 30.36 in
(1028 mb)
N 3.5 mph
(N 6 kph)
- 10SM
10:35
Clear
37°F / 3°C 25°F / -4°C 60% 30.36 in
(1028 mb)
NNE 3.5 mph
(NNE 6 kph)
- 10SM
10:15
Clear
36°F / 2°C 23°F / -5°C 60% 30.36 in
(1028 mb)
NNW 5.8 mph
(NNW 9 kph)
- 10SM
09:55
Clear
36°F / 2°C 25°F / -4°C 65% 30.36 in
(1028 mb)
NW 8.1 mph
(NW 13 kph)
- 10SM
09:35
Clear
36°F / 2°C 23°F / -5°C 60% 30.36 in
(1028 mb)
Calm - 10SM
09:15
Clear
34°F / 1°C 23°F / -5°C 65% 30.36 in
(1028 mb)
NW 8.1 mph
(NW 13 kph)
- 10SM
08:55
Partly Cloudy
34°F / 1°C 25°F / -4°C 70% 30.36 in
(1028 mb)
NW 6.9 mph
(NW 11 kph)
- 10SM
08:35
Partly Cloudy
34°F / 1°C 25°F / -4°C 70% 30.36 in
(1028 mb)
WNW 5.8 mph
(WNW 9 kph)
- 10SM
08:15
Partly Cloudy
32°F / 0°C 25°F / -4°C 75% 30.36 in
(1028 mb)
NNW 4.6 mph
(NNW 7 kph)
- 10SM
07:55
Clear
32°F / 0°C 25°F / -4°C 75% 30.36 in
(1028 mb)
Calm - 10SM
07:35
Clear
30°F / -1°C 23°F / -5°C 75% 30.33 in
(1027 mb)
NNW 4.6 mph
(NNW 7 kph)
- 10SM
07:15
Clear
30°F / -1°C 23°F / -5°C 75% 30.33 in
(1027 mb)
N 3.5 mph
(N 6 kph)
- 10SM
06:55
Clear
28°F / -2°C 25°F / -4°C 86% 30.33 in
(1027 mb)
Calm - 10SM
06:35
Clear
28°F / -2°C 25°F / -4°C 86% 30.33 in
(1027 mb)
NNW 3.5 mph
(NNW 6 kph)
- 10SM
06:15
Clear
27°F / -3°C 23°F / -5°C 86% 30.33 in
(1027 mb)
NNW 3.5 mph
(NNW 6 kph)
- 10SM
05:55
Clear
25°F / -4°C 23°F / -5°C 93% 30.33 in
(1027 mb)
NNW 3.5 mph
(NNW 6 kph)
- 10SM
05:35
Clear
23°F / -5°C 21°F / -6°C 93% 30.3 in
(1026 mb)
Calm - 10SM
05:15
Clear
23°F / -5°C 21°F / -6°C 93% 30.3 in
(1026 mb)
NW 3.5 mph
(NW 6 kph)
- 10SM
04:55
Clear
25°F / -4°C 23°F / -5°C 93% 30.3 in
(1026 mb)
Calm - 10SM
04:35
Clear
27°F / -3°C 23°F / -5°C 86% 30.3 in
(1026 mb)
NNW 3.5 mph
(NNW 6 kph)
- 10SM
04:15
Clear
27°F / -3°C 23°F / -5°C 86% 30.3 in
(1026 mb)
NW 3.5 mph
(NW 6 kph)
- 10SM
03:55
Clear
27°F / -3°C 23°F / -5°C 86% 30.27 in
(1025 mb)
NW 3.5 mph
(NW 6 kph)
- 10SM
03:35
Clear
28°F / -2°C 25°F / -4°C 86% 30.27 in
(1025 mb)
NNW 3.5 mph
(NNW 6 kph)
- 10SM
03:15
Clear
28°F / -2°C 25°F / -4°C 86% 30.27 in
(1025 mb)
NNW 4.6 mph
(NNW 7 kph)
- 10SM
02:55
Mostly Cloudy
28°F / -2°C 25°F / -4°C 86% 30.27 in
(1025 mb)
NNW 5.8 mph
(NNW 9 kph)
- 10SM
02:35
Overcast
30°F / -1°C 25°F / -4°C 80% 30.27 in
(1025 mb)
NW 6.9 mph
(NW 11 kph)
- 10SM
02:15
Overcast
30°F / -1°C 25°F / -4°C 80% 30.27 in
(1025 mb)
NW 8.1 mph
(NW 13 kph)
- 10SM
01:55
Overcast
32°F / 0°C 25°F / -4°C 75% 30.27 in
(1025 mb)
NNW 10.4 mph
(NNW 17 kph)
- 10SM
01:35
Overcast
32°F / 0°C 25°F / -4°C 75% 30.27 in
(1025 mb)
NW 6.9 mph
(NW 11 kph)
- 10SM
01:15
Overcast
32°F / 0°C 27°F / -3°C 80% 30.27 in
(1025 mb)
NW 6.9 mph
(NW 11 kph)
- 10SM
00:55
Overcast
32°F / 0°C 27°F / -3°C 80% 30.27 in
(1025 mb)
NW 5.8 mph
(NW 9 kph)
- 10SM
00:35
Overcast
32°F / 0°C 25°F / -4°C 75% 30.27 in
(1025 mb)
NNW 6.9 mph
(NNW 11 kph)
- 10SM
00:15
Overcast
32°F / 0°C 25°F / -4°C 75% 30.27 in
(1025 mb)
NNW 9.2 mph
(NNW 15 kph)
- 10SM
Time Weather Temperature Dewpoint Humidity Pressure Winds Precip Visibility


Weather for websites

WeatherForYou.com, LLC is not responsible for any damages or problems caused by this service. Current weather conditions are obtained from the closest station including government and personal stations which may have varying degrees of accuracy. Weather forecasts are derived from the NOAA NDFD. Like all things, this site belongs to Jesus Christ... He just trusts me to maintain it. If you have any questions or comments email webmaster@weatherforyou.com

Copyright © 2014, WeatherForYou.com LLC. All rights reserved.